Location: *
(45.1961°N, 1.9694°E)
Time: 08:04:31
(UTC+00:00)

Meteor 2-15 - Pass Details

Date: 25 August 2019
Orbit: 937 x 955 km, 82.5° (Epoch: 16 September)

Event Time Altitude Azimuth Distance (km) Brightness Sun altitude
Exits shadow 21:40:28 70° 150° (SSE) 1,007 4.3 -26.6°
Maximum altitude 21:41:06 78° 96° (E) 973 4.3 -26.6°
Drops below altitude 10° 21:47:14 10° 12° (NNE) 2,685 7.3 -27.3°
Sets 21:49:45 0° 11° (N) 3,637 8.1 -27.5°
